CST,Max TemperatureF,Mean TemperatureF,Min TemperatureF,Max Dew PointF,MeanDew PointF,Min DewpointF,Max Humidity, Mean Humidity, Min Humidity, Max Sea Level PressureIn, Mean Sea Level PressureIn, Min Sea Level PressureIn, Max VisibilityMiles, Mean VisibilityMiles, Min VisibilityMiles, Max Wind SpeedMPH, Mean Wind SpeedMPH, Max Gust SpeedMPH,PrecipitationIn, CloudCover, Events, WindDirDegrees
2013-1-1,19,7,-5,16,6,-6,95,84,73,30.36,30.26,30.10,10,10,8,13,5,15,0.00,6,,150
2013-1-2,33,17,0,28,16,-2,95,85,75,30.25,30.12,30.02,10,8,2,17,8,21,0.01,7,Snow,11
2013-1-3,30,18,6,25,14,4,92,83,73,30.46,30.35,30.20,10,10,6,28,10,32,T,5,Snow,297
2013-1-4,24,14,3,17,8,1,92,83,73,30.29,30.24,30.16,10,10,9,13,6,15,0.00,0,,116
2013-1-5,32,17,2,22,11,-1,95,79,63,30.25,30.11,30.03,10,9,5,32,12,40,T,3,Snow,347
2013-1-6,28,16,3,19,12,1,92,82,71,30.36,30.26,30.10,10,10,9,16,7,23,0.00,0,,137
2013-1-7,37,25,13,26,19,10,96,80,64,30.09,30.02,29.97,10,7,0,15,5,,0.00,0,Fog,140
2013-1-8,33,22,12,28,15,9,96,86,78,30.14,29.93,29.79,10,3,0,9,3,,0.00,3,Fog,153
2013-1-9,37,25,13,30,24,12,100,88,75,30.45,30.33,30.17,10,10,2,14,6,16,0.00,0,,141
2013-1-10,37,28,19,34,29,19,100,86,53,30.32,29.94,29.66,10,8,2,15,8,,0.02,6,Rain,139
2013-1-11,40,32,23,39,33,16,100,93,85,29.70,29.54,29.39,10,5,0,28,11,35,T,8,Fog-Rain,184
2013-1-12,23,15,7,14,7,0,76,69,61,30.20,30.03,29.69,10,9,3,31,16,39,T,5,Snow,305
2013-1-13,18,12,5,4,2,-1,87,71,54,30.38,30.26,30.12,10,10,7,22,10,26,T,3,,308
2013-1-14,28,15,2,14,8,-1,88,69,50,30.51,30.42,30.32,10,10,10,13,4,15,0.00,0,,182
2013-1-15,34,24,14,18,14,9,80,66,51,30.36,30.21,30.01,10,10,10,20,10,30,0.00,2,,205
2013-1-16,50,36,22,32,25,14,85,68,50,30.32,30.01,29.84,10,10,10,28,12,35,0.00,4,,294
2013-1-17,38,29,20,32,23,12,100,85,66,30.50,30.37,30.23,10,8,0,13,5,16,0.00,6,Fog,130
2013-1-18,55,41,27,32,28,26,96,67,38,30.23,29.98,29.84,10,10,8,14,9,,0.00,0,,208
2013-1-19,48,31,14,33,23,4,75,61,46,30.40,30.04,29.81,10,10,10,29,14,43,T,1,,320
2013-1-20,14,10,5,9,4,-5,87,74,61,30.51,30.45,30.40,10,7,1,24,10,30,0.06,6,Snow,329
2013-1-21,9,4,-1,-2,-6,-10,79,70,60,30.53,30.48,30.36,10,10,10,25,11,31,0.00,4,,316
2013-1-22,16,12,7,8,3,-4,83,70,57,30.47,30.38,30.29,10,10,10,10,5,12,0.00,6,,157
2013-1-23,25,14,2,15,6,-9,91,74,56,30.63,30.38,30.21,10,10,10,22,11,26,0.00,0,,6
2013-1-24,18,9,-1,5,-3,-11,69,59,49,30.67,30.45,30.17,10,10,10,20,12,25,0.00,3,,132
2013-1-25,38,23,8,24,11,4,80,68,56,30.28,30.18,30.13,10,10,10,16,8,23,0.00,0,,317
2013-1-26,40,25,9,24,14,3,76,62,48,30.31,30.18,30.02,10,10,10,21,11,25,0.00,2,,131
2013-1-27,37,35,33,37,33,24,100,80,59,30.01,29.82,29.72,10,3,0,16,6,23,0.09,8,Fog-Rain,143
2013-1-28,40,37,34,39,36,34,100,96,92,29.87,29.75,29.57,7,1,0,14,5,17,0.01,8,Fog,129
2013-1-29,37,32,27,34,29,22,100,87,63,29.79,29.68,29.59,10,8,0,26,14,33,0.00,8,Fog,334
2013-1-30,27,17,7,20,10,0,81,74,67,30.00,29.85,29.75,10,9,2,25,20,37,T,7,Snow,324
2013-1-31,7,2,-3,-1,-8,-11,76,63,44,30.49,30.29,30.00,10,9,3,33,19,39,T,5,Snow,320